[[{"header":{"parameterUnit":"m.s-1","parameterCategory":1,"la1":30.2991,"la2":30.254,"lo1":-89.0895,"lo2":-89.0444,"dx":0.0017,"dy":0.0017,"nx":28,"ny":28,"refTime":"2023-01-14T03:00:00:Z","depth":0,"parameterNumber":2,"parameterNumberName":"U-component_of_WINDS"},"data":[0,0,0,0,0,0,0,0,0,0,0,0,0,0,0,0,0,0,0,0,0,0,0,0,0,0,0,0,0,0,0,0,0,0,0,0,0,0,0,0,0,0,0,0,0,0,0,0,0,0,0,0,0,0,0,0,0,0,0.8613,0.8613,0,0.8639,0.8639,0.864,0.8657,0.8658,0.8658,0.8658,0.8684,0.8685,0.8685,0,0,0,0,0,0,0,0,0,0,0,0,0,0.8579,0.858,0.8613,0.8613,0.8614,0.8639,0.8639,0.864,0.8657,0.8658,0.8658,0.8658,0.8684,0.8685,0.8685,0,0,0,0,0,0,0,0,0,0,0,0,0,0.8598,0.858,0.8613,0.8625,0.8627,0.8639,0.8639,0.864,0.8657,0.8658,0.8658,0.8658,0.8684,0.8685,0.8685,0.8687,0,0,0.8688,0.8689,0,0,0,0,0,0,0,0,0.8597,0.86,0.8623,0.8625,0.8626,0.8645,0.8637,0.8656,0.8657,0.8646,0.8658,0.8658,0.8671,0.8673,0.8677,0.8688,0.8689,0.8688,0.8689,0.8689,0.8689,0,0,0,0,0,0,0,0.8596,0.8599,0.8623,0.8624,0.8625,0.863,0.8633,0.8641,0.8657,0.8647,0.8648,0.8651,0.8672,0.8677,0.8678,0.869,0.8688,0.8689,0.869,0.869,0.8705,0.8704,0,0,0,0,0,0,0.8593,0.8597,0.8622,0.8624,0.8612,0.8631,0.8634,0.8639,0.8657,0.866,0.8651,0.8652,0.8675,0.8677,0.8679,0.8683,0.8689,0.869,0.869,0.8705,0.8705,0.8704,0,0,0,0,0,0,0.8592,0.8595,0.8621,0.8611,0.8615,0.8631,0.8636,0.8639,0.8644,0.866,0.8663,0.8652,0.8675,0.8678,0.8685,0.8684,0.869,0.8691,0.8705,0.8705,0.8704,0.8689,0,0,0,0,0,0,0.8591,0.8594,0.8595,0.8611,0.8615,0.8627,0.8636,0.864,0.8645,0.8647,0.8662,0.8665,0.8676,0.8684,0.8686,0.8685,0.8692,0.8705,0.8705,0.8705,0.869,0.8689,0.8688,0,0,0,0,0,0.859,0.8589,0.8595,0.8597,0.8616,0.8626,0.8629,0.8641,0.8645,0.8646,0.8657,0.8665,0.8684,0.8684,0.8687,0.8686,0.8705,0.8705,0.8705,0.8691,0.8689,0.8688,0,0,0,0,0,0,0.8572,0.8591,0.8598,0.8602,0.8613,0.8629,0.863,0.8639,0.8648,0.8649,0.8663,0.8667,0.8673,0.868,0.8681,0.869,0.8696,0.8696,0.8684,0.8683,0.8681,0.8679,0.8693,0,0,0,0,0,0.8568,0.8575,0.8592,0.8594,0.8599,0.8614,0.8619,0.8628,0.8639,0.8643,0.8654,0.8665,0.8673,0.8679,0.8687,0.8692,0.8696,0.8693,0.8692,0.869,0.869,0.8694,0.8693,0.8703,0.8703,0.8703,0,0,0.8561,0.8573,0.8576,0.8591,0.86,0.8607,0.8618,0.8624,0.8629,0.8644,0.8652,0.866,0.8673,0.868,0.8683,0.8686,0.8689,0.869,0.8689,0.869,0.8694,0.8693,0.8692,0.8703,0.8703,0.8703,0,0,0.8552,0.8561,0.8565,0.8574,0.8588,0.8598,0.8599,0.8615,0.8621,0.8629,0.8641,0.8648,0.8662,0.8671,0.8677,0.8673,0.8682,0.8676,0.8669,0.8673,0.8672,0.8671,0.8671,0.867,0.8676,0.8676,0.8676,0,0.8541,0.8552,0.8565,0.8572,0.8578,0.8593,0.8597,0.8605,0.8621,0.8625,0.8629,0.8648,0.8658,0.8667,0.8666,0.8671,0.8673,0.8674,0.8671,0.8671,0.867,0.867,0.8669,0.8675,0.8675,0.8675,0.8675,0,0.8538,0.8546,0.8547,0.8562,0.8569,0.8574,0.8589,0.8595,0.8604,0.8614,0.8622,0.8635,0.8647,0.865,0.8658,0.866,0.8662,0.8668,0.8674,0.8668,0.8668,0.8668,0.8674,0.8674,0.8675,0.8675,0,0,0.8517,0.8541,0.8541,0.8549,0.8566,0.8572,0.8579,0.8591,0.8595,0.8606,0.8612,0.8625,0.8631,0.8639,0.8648,0.8652,0.8649,0.8658,0.8658,0.8656,0.8653,0.8648,0.8648,0.8655,0.8655,0.8655,0.8652,0,0.851,0.8522,0.8535,0.8542,0.855,0.8565,0.857,0.8582,0.8592,0.86,0.8611,0.862,0.8628,0.8632,0.8636,0.8648,0.8648,0.8649,0.8661,0.8661,0.8657,0.8647,0.8642,0.8639,0.8652,0.8652,0.8652,0,0.8503,0.8514,0.8522,0.854,0.8543,0.8548,0.8561,0.8569,0.8582,0.859,0.8599,0.8609,0.8618,0.8624,0.8636,0.8636,0.8642,0.8648,0.8649,0.865,0.8656,0.8648,0.8638,0.8637,0.8652,0.8652,0.8652,0,0.8486,0.8503,0.851,0.8517,0.8537,0.8541,0.8549,0.8564,0.8571,0.8582,0.8587,0.8599,0.8606,0.8616,0.863,0.8633,0.8641,0.8648,0.8647,0.8647,0.8647,0.8647,0.8638,0.8652,0.8652,0.8652,0.8652,0,0.8477,0.8481,0.8503,0.8508,0.8514,0.853,0.8535,0.8546,0.8559,0.8566,0.858,0.8586,0.8605,0.8614,0.8625,0.8634,0.8636,0.8643,0.8646,0.8641,0.8641,0.8645,0.8645,0.8652,0.8652,0.8652,0.8652,0,0.8459,0.8474,0.8483,0.8502,0.8508,0.8511,0.8528,0.8533,0.8545,0.8554,0.8557,0.8575,0.8587,0.8602,0.8618,0.8626,0.8634,0.8638,0.8629,0.863,0.8629,0.8629,0.8622,0.8622,0.8636,0.8636,0.8636,0,0.8451,0.8455,0.8476,0.8482,0.849,0.85,0.8507,0.8524,0.8531,0.8548,0.8552,0.8565,0.8576,0.8594,0.8608,0.8621,0.8626,0.8623,0.8628,0.8624,0.8626,0.8626,0.8627,0.8621,0.8621,0.8621,0.8621,0,0.8437,0.8444,0.8455,0.8468,0.8477,0.8488,0.85,0.8504,0.8523,0.8531,0.8543,0.8552,0.8569,0.8582,0.8597,0.8607,0.8617,0.8619,0.862,0.8615,0.861,0.8613,0.8625,0.8619,0.8619,0.8619,0.862,0.862,0.8424,0.8428,0.8444,0.8455,0.8466,0.8477,0.8484,0.8497,0.8507,0.8523,0.8532,0.8544,0.856,0.8582,0.8591,0.8601,0.8605,0.8606,0.8606,0.8606,0.8605,0.8609,0.8604,0.8604,0.8604,0.8604,0.8604,0,0.841,0.8421,0.8431,0.8448,0.8457,0.8467,0.8481,0.8488,0.8499,0.8513,0.8524,0.8539,0.8552,0.8568,0.8583,0.8588,0.8593,0.8591,0.8591,0.8593,0.86,0.8598,0.8587,0.8587,0.8587,0.8587,0.8587,0.8587,0.8403,0.8412,0.8422,0.8437,0.8448,0.846,0.8468,0.8479,0.849,0.8506,0.8517,0.8528,0.8543,0.8559,0.8572,0.8577,0.8581,0.8578,0.8584,0.8591,0.8592,0.8594,0.8592,0.8579,0.8579,0.8576,0.8576,0.8576]},{"header":{"parameterUnit":"m.s-1","parameterCategory":1,"la1":30.2991,"la2":30.254,"lo1":-89.0895,"lo2":-89.0444,"dx":0.0017,"dy":0.0017,"nx":28,"ny":28,"refTime":"2023-01-14T03:00:00:Z","depth":0,"parameterNumber":3,"parameterNumberName":"V-component_of_WINDS"},"data":[0,0,0,0,0,0,0,0,0,0,0,0,0,0,0,0,0,0,0,0,0,0,0,0,0,0,0,0,0,0,0,0,0,0,0,0,0,0,0,0,0,0,0,0,0,0,0,0,0,0,0,0,0,0,0,0,0,0,-6.0374,-6.0376,0,-6.0554,-6.0556,-6.0558,-6.0512,-6.0508,-6.0505,-6.0501,-6.0681,-6.0689,-6.0697,0,0,0,0,0,0,0,0,0,0,0,0,0,-5.9983,-5.9991,-6.0374,-6.0376,-6.0378,-6.0554,-6.0557,-6.0559,-6.0512,-6.0508,-6.0504,-6.05,-6.0678,-6.0688,-6.0697,0,0,0,0,0,0,0,0,0,0,0,0,0,-6.0157,-5.9993,-6.0373,-6.0376,-6.0379,-6.0554,-6.0557,-6.056,-6.0513,-6.0508,-6.0503,-6.0498,-6.0675,-6.0687,-6.0699,-6.088,0,0,-6.0736,-6.0741,0,0,0,0,0,0,0,0,-6.0147,-6.0171,-6.0374,-6.0377,-6.0379,-6.0505,-6.0485,-6.0667,-6.0515,-6.0462,-6.0501,-6.0495,-6.0626,-6.0642,-6.0688,-6.0889,-6.0896,-6.0737,-6.0744,-6.0749,-6.0753,0,0,0,0,0,0,0,-6.0135,-6.0163,-6.0445,-6.0377,-6.038,-6.0367,-6.0386,-6.0519,-6.0572,-6.0466,-6.0463,-6.0485,-6.0627,-6.0676,-6.0691,-6.0899,-6.0737,-6.0747,-6.0755,-6.076,-6.1256,-6.1262,0,0,0,0,0,0,-6.0122,-6.0154,-6.0439,-6.0451,-6.0248,-6.0378,-6.0399,-6.047,-6.057,-6.058,-6.049,-6.0483,-6.0658,-6.0677,-6.0698,-6.0916,-6.0749,-6.0761,-6.0768,-6.1251,-6.1258,-6.1264,0,0,0,0,0,0,-6.0114,-6.0148,-6.0432,-6.0302,-6.0337,-6.0391,-6.047,-6.0476,-6.0526,-6.0588,-6.0597,-6.0531,-6.0654,-6.068,-6.0835,-6.0922,-6.0766,-6.0777,-6.1244,-6.1253,-6.1261,-6.1355,0,0,0,0,0,0,-6.0103,-6.0145,-6.0216,-6.0304,-6.0344,-6.0569,-6.0476,-6.0484,-6.0547,-6.054,-6.0629,-6.0638,-6.0652,-6.0817,-6.0847,-6.0935,-6.0787,-6.1236,-6.1248,-6.1258,-6.1344,-6.1366,-6.1384,0,0,0,0,0,-6.0089,-6.0235,-6.022,-6.0255,-6.0434,-6.0574,-6.0597,-6.0611,-6.0555,-6.0625,-6.0665,-6.0636,-6.0907,-6.0834,-6.0867,-6.096,-6.1231,-6.1244,-6.1257,-6.1335,-6.1362,-6.1384,0,0,0,0,0,0,-6.0155,-6.0246,-6.0231,-6.041,-6.0485,-6.0566,-6.0656,-6.0639,-6.073,-6.0719,-6.0731,-6.0752,-6.091,-6.095,-6.0867,-6.114,-6.106,-6.1081,-6.1108,-6.1134,-6.1153,-6.114,-6.0797,0,0,0,0,0,-6.019,-6.0298,-6.0371,-6.0522,-6.056,-6.0602,-6.0663,-6.0668,-6.0745,-6.0776,-6.0827,-6.0902,-6.1004,-6.1071,-6.1168,-6.135,-6.1367,-6.143,-6.145,-6.1466,-6.1483,-6.1581,-6.1609,-6.1308,-6.1308,-6.1308,0,0,-6.0264,-6.0328,-6.0395,-6.0537,-6.0595,-6.0705,-6.0629,-6.0748,-6.0829,-6.0794,-6.0944,-6.0984,-6.1067,-6.1236,-6.1313,-6.1275,-6.1571,-6.1483,-6.1495,-6.1504,-6.1597,-6.1626,-6.1651,-6.1317,-6.1315,-6.1314,0,0,-6.0455,-6.0515,-6.0646,-6.0707,-6.0797,-6.0823,-6.0855,-6.0939,-6.0965,-6.1116,-6.1091,-6.1186,-6.1362,-6.1423,-6.1476,-6.1689,-6.1665,-6.172,-6.1825,-6.192,-6.1943,-6.1965,-6.204,-6.2067,-6.1738,-6.1738,-6.1738,0,-6.0536,-6.0702,-6.0716,-6.0838,-6.09,-6.0874,-6.1007,-6.1064,-6.118,-6.1223,-6.1179,-6.1399,-6.1453,-6.1635,-6.1687,-6.1732,-6.1767,-6.171,-6.1939,-6.1961,-6.198,-6.2052,-6.208,-6.1744,-6.1743,-6.1743,-6.1742,0,-6.0796,-6.0911,-6.1006,-6.1121,-6.1194,-6.132,-6.1351,-6.1423,-6.1421,-6.1451,-6.1604,-6.1669,-6.1778,-6.1822,-6.182,-6.2003,-6.1977,-6.1936,-6.1856,-6.2015,-6.2083,-6.211,-6.1753,-6.1751,-6.1749,-6.1747,0,0,-6.1034,-6.1155,-6.1189,-6.1241,-6.1338,-6.1426,-6.155,-6.1659,-6.172,-6.18,-6.1904,-6.2053,-6.2016,-6.2077,-6.2081,-6.2165,-6.2328,-6.2114,-6.2116,-6.2151,-6.2532,-6.2562,-6.2594,-6.2313,-6.2318,-6.2322,-6.2525,0,-6.1233,-6.1454,-6.147,-6.1668,-6.1774,-6.175,-6.1858,-6.1928,-6.196,-6.2052,-6.2086,-6.2191,-6.2135,-6.2171,-6.2253,-6.2291,-6.2405,-6.2277,-6.2407,-6.2412,-6.2387,-6.263,-6.2662,-6.285,-6.2552,-6.2556,-6.2559,0,-6.1496,-6.1586,-6.1796,-6.1877,-6.1922,-6.2019,-6.2119,-6.2208,-6.2286,-6.2303,-6.2371,-6.2364,-6.2489,-6.2405,-6.2577,-6.2489,-6.2543,-6.257,-6.2577,-6.259,-6.2495,-6.2648,-6.2911,-6.2939,-6.2601,-6.2598,-6.2595,0,-6.1648,-6.1821,-6.1969,-6.2014,-6.2112,-6.2181,-6.2225,-6.2298,-6.2362,-6.2448,-6.249,-6.2589,-6.2644,-6.272,-6.274,-6.2677,-6.2911,-6.2828,-6.2927,-6.2926,-6.2977,-6.2974,-6.3252,-6.3013,-6.3012,-6.3012,-6.3011,0,-6.1869,-6.1998,-6.2039,-6.213,-6.2273,-6.2288,-6.2429,-6.2468,-6.2533,-6.2629,-6.2614,-6.2705,-6.2725,-6.2819,-6.2834,-6.2973,-6.2998,-6.3014,-6.3016,-6.3015,-6.3013,-6.3051,-6.3038,-6.3019,-6.3017,-6.3016,-6.3015,0,-6.2063,-6.2096,-6.2255,-6.2336,-6.2359,-6.2461,-6.2528,-6.2614,-6.2643,-6.2766,-6.2795,-6.284,-6.295,-6.2977,-6.3107,-6.3117,-6.3282,-6.3272,-6.3256,-6.3256,-6.3352,-6.3343,-6.3665,-6.3707,-6.344,-6.3442,-6.3445,0,-6.2202,-6.2301,-6.2392,-6.2456,-6.2504,-6.2607,-6.2673,-6.2691,-6.2759,-6.2855,-6.2929,-6.3037,-6.3125,-6.3301,-6.3344,-6.3443,-6.3435,-6.3541,-6.345,-6.3445,-6.3436,-6.343,-6.3439,-6.3558,-6.3561,-6.3563,-6.3565,0,-6.2445,-6.2456,-6.2552,-6.2654,-6.2732,-6.2813,-6.289,-6.2943,-6.2971,-6.3048,-6.3161,-6.3229,-6.3362,-6.3469,-6.3569,-6.3611,-6.3593,-6.3594,-6.3622,-6.3622,-6.3608,-6.3616,-6.3303,-6.3586,-6.3584,-6.3583,-6.3581,-6.3581,-6.2615,-6.2702,-6.2779,-6.2886,-6.2946,-6.3018,-6.3103,-6.3143,-6.3238,-6.3349,-6.3353,-6.3475,-6.3549,-6.3681,-6.373,-6.3824,-6.3792,-6.3832,-6.3842,-6.3852,-6.3861,-6.3593,-6.3842,-6.3842,-6.3841,-6.3841,-6.384,0,-6.2857,-6.2905,-6.3004,-6.3112,-6.3196,-6.3172,-6.3256,-6.3327,-6.3435,-6.3506,-6.3593,-6.3722,-6.3825,-6.3876,-6.3978,-6.4044,-6.4038,-6.407,-6.4065,-6.4075,-6.3884,-6.385,-6.4073,-6.4073,-6.4073,-6.4073,-6.4073,-6.4073,-6.2992,-6.3137,-6.3157,-6.3331,-6.3378,-6.3499,-6.3548,-6.3614,-6.3671,-6.3816,-6.3902,-6.3935,-6.3998,-6.4104,-6.4197,-6.4209,-6.4247,-6.4284,-6.4292,-6.4112,-6.4089,-6.4066,-6.4034,-6.4292,-6.4292,-6.4475,-6.4476,-6.4478]}]]